sat.trackr.live / text

‹ back to catalog

STARLINK-32328

NORAD 62489 · 2025-003C

PAYLOAD ACTIVE UNKNOWN

§ Identity

Operator
Country
US
Launch date
2025-01-06
Launch site
AFETR
Launch vehicle
Mass (kg)
RCS (m²)

Purposes: comms

External: N2YO · Heavens-Above · Gunter

§ Orbital elements

Epoch: 2026-05-25T05:25:07.037760Z

Period
94.27 min
Inclination
42.9973°
Eccentricity
0.0001081
Mean motion
15.27592250 rev/d
Perigee alt
482.3 km
Apogee alt
483.8 km
Semi-major
6,861.1 km
B*
5.1261e-4
RAAN
217.0029°
Arg perigee
273.5672°
Mean anomaly
86.5056°
Rev number
7,837

§ Raw data

STARLINK-323281 62489U 25003C   26145.22577590  .00013876  00000+0  51261-3 0  99962 62489  42.9973 217.0029 0001081 273.5672  86.5056 15.27592250 78371

JSON: /api/v1/satellites/62489 · /tle

For live sub-satellite position, see the globe view (requires WebGL).

§ Visibility from observer

Set your observer location to see the next 7 days of passes ≥ 10°. The values pass through the URL so the page stays shareable.

No JS? Fill the form by hand. The geolocation button needs JavaScript.